Weather History for George, South Africa

Change the Weather History Date:

Friday, March 22, 2013

  Actual Average Record
Temperature  
Mean Temperature 68 °F -  
Max Temperature 83 °F 71 °F 83 °F (2013)
Min Temperature 54 °F 54 °F 51 °F (2006)
Cooling Degree Days 4    
Growing Degree Days 18 (Base 50)    
Moisture  
Dew Point 57 °F    
Average Humidity 75    
Maximum Humidity 94    
Minimum Humidity 31    
Precipitation  
Precipitation 0.01 in - - ()
Sea Level Pressure  
Sea Level Pressure 29.85 in    
Wind  
Wind Speed 4 mph ()    
Max Wind Speed 12 mph    
Max Gust Speed -    
Visibility 7.5 miles    
Events Fog    
Averages and records for this station are not official NWS values.
T = Trace of Precipitation, MM = Missing Value Source: Averaged Metar Reports

Daily Weather History Graph

Daily Weather History Graph

Search for Another Location

Airport:

Trip Planner

Search our weather history database for the weather conditions in past years. The results will help you decide how hot, cold, wet, or windy it might be!

Date:

Astronomy

Mar. 22, 2013 Rise Set
Actual Time 6:35 AM SAST 6:38 PM SAST
Civil Twilight 6:10 AM SAST 7:03 PM SAST
Nautical Twilight 5:41 AM SAST 7:32 PM SAST
Astronomical Twilight 5:11 AM SAST 8:02 PM SAST
Moon 3:28 PM SAST (3/22) 1:35 AM SAST (3/22)
Length of Visible Light 12h 53m
Length of Day
12h 03m
Waxing Gibbous, 75% of the Moon is Illuminated
Mar 22
Waxing Gibbous
Mar 27
Full
Apr 3
Last Quarter
Apr 10
New
Apr 18
First Quarter

Hourly Weather History & Observations

Time (SAST) Temp. Heat Index Dew Point Humidity Pressure Visibility Wind Dir Wind Speed Gust Speed Precip Events Conditions
12:00 AM 57.2 °F - 50.0 °F 77% 29.95 in - NNE 3.5 mph - N/A   Clear
1:00 AM 57.2 °F - 50.0 °F 77% 29.95 in - Variable 2.3 mph - N/A   Clear
2:00 AM 56 °F - 50 °F 74% 29.93 in 19 mi 2.3 mph - -  
2:00 AM 55.4 °F - 50.0 °F 82% 29.92 in 6.2 mi North 3.5 mph - N/A   Mostly Cloudy
5:00 AM 55 °F - 54 °F 94% 29.90 in 0 mi NNW 3.5 mph - - Fog Heavy Fog
5:00 AM 55.4 °F - 53.6 °F 94% 29.89 in 0.4 mi NNW 3.5 mph - N/A Fog Fog
6:00 AM 55.4 °F - 53.6 °F 94% 29.86 in 0.9 mi North 4.6 mph - N/A Fog Patches of Fog
7:00 AM 55.4 °F - 53.6 °F 94% 29.86 in 0.3 mi North 2.3 mph - N/A Fog Patches of Fog
8:00 AM 56 °F - 54 °F 90% 29.87 in 12 mi NW 4.6 mph - -   Scattered Clouds
8:00 AM 55.4 °F - 53.6 °F 94% 29.86 in 6.2 mi NW 4.6 mph - N/A   Partly Cloudy
9:00 AM 66.2 °F - 57.2 °F 73% 29.86 in 6.2 mi Variable 2.3 mph - N/A   Partly Cloudy
10:00 AM 71.6 °F - 59.0 °F 64% 29.86 in - East 3.5 mph - N/A   Clear
11:00 AM 78 °F - 57 °F 39% 29.86 in 12 mi East 3.5 mph - -  
11:00 AM 77.0 °F - 55.4 °F 47% 29.83 in - ENE 4.6 mph - N/A   Clear
12:00 PM 82.4 °F 82.0 °F 57.2 °F 42% 29.83 in - Variable 3.5 mph - N/A   Clear
1:00 PM 80.6 °F 80.5 °F 55.4 °F 42% 29.80 in - SSE 4.6 mph - N/A   Clear
2:00 PM 82 °F - 56 °F 31% 29.77 in 19 mi South 8.1 mph - -  
2:00 PM 82.4 °F 82.0 °F 57.2 °F 42% 29.80 in - SSW 8.1 mph - N/A   Clear
3:00 PM 77.0 °F - 60.8 °F 57% 29.77 in 6.2 mi South 11.5 mph - N/A   Partly Cloudy
4:00 PM 69.8 °F - 62.6 °F 78% 29.77 in 6.2 mi South 5.8 mph - N/A   Partly Cloudy
5:00 PM 68 °F - 62 °F 77% 29.79 in 12 mi SSW 8.1 mph - -   Scattered Clouds
5:00 PM 68.0 °F - 62.6 °F 83% 29.80 in 6.2 mi SSW 8.1 mph - N/A   Partly Cloudy
6:00 PM 68.0 °F - 62.6 °F 83% 29.80 in 6.2 mi WSW 5.8 mph - N/A   Scattered Clouds
7:00 PM 64.4 °F - 60.8 °F 88% 29.83 in 6.2 mi West 5.8 mph - N/A   Partly Cloudy
8:00 PM 65 °F - 62 °F 86% 29.85 in 12 mi WNW 4.6 mph - -   Scattered Clouds
8:00 PM 64.4 °F - 62.6 °F 94% 29.86 in 6.2 mi WNW 4.6 mph - N/A   Partly Cloudy
9:00 PM 64.4 °F - 60.8 °F 88% 29.86 in - WNW 3.5 mph - N/A   Clear
10:00 PM 64.4 °F - 60.8 °F 88% 29.86 in - NNW 3.5 mph - N/A   Clear
11:00 PM 62.6 °F - 60.8 °F 94% 29.83 in - North 2.3 mph - N/A   Clear